Taylorville, IL

3:09 PM CST on February 20, 2017 (GMT -0600)
Taylorville Municipal

Weather History for KTAZ - May, 2013

Change the Weather History Date:

Thursday, May 23, 2013

  Actual Average (KSPI) Record (KSPI)
Temperature  
Mean Temperature 55 °F -  
Max Temperature 60 °F 75 °F 92 °F (1964)
Min Temperature 48 °F 55 °F 36 °F (1961)
Degree Days  
Heating Degree Days 10    
Growing Degree Days 5 (Base 50)    
Moisture  
Dew Point 52 °F    
Average Humidity 81    
Maximum Humidity 94    
Minimum Humidity 67    
Precipitation  
Precipitation 0.00 in - - ()
Sea Level Pressure  
Sea Level Pressure 30.01 in    
Wind  
Wind Speed 10 mph (NW)    
Max Wind Speed 21 mph    
Max Gust Speed 25 mph    
Visibility 10 miles    
Events Rain    
Averages and records for this station are not official NWS values.
T = Trace of Precipitation, MM = Missing Value Source: NWS Daily Summary

Daily Weather History Graph

Daily Weather History Graph

Search for Another Location

Airport or City:

Trip Planner

Search our weather history database for the weather conditions in past years. The results will help you decide how hot, cold, wet, or windy it might be!

Date:

Astronomy

May. 23, 2013 Rise Set
Actual Time 5:36 AM CDT 8:11 PM CDT
Civil Twilight 5:05 AM CDT 8:43 PM CDT
Nautical Twilight 4:26 AM CDT 9:22 PM CDT
Astronomical Twilight 3:43 AM CDT 10:05 PM CDT
Moon 6:44 PM CDT (5/23) 4:21 AM CDT (5/23)
Length of Visible Light 15h 37m
Length of Day
14h 35m
Waxing Gibbous, 97% of the Moon is Illuminated
May 23
Waxing Gibbous
May 24
Full
May 31
Last Quarter
Jun 8
New
Jun 16
First Quarter

Hourly Weather History & Observations

Time (CDT) Temp. Dew Point Humidity Pressure Visibility Wind Dir Wind Speed Gust Speed Precip Events Conditions
12:15 AM 59.0 °F 53.6 °F 82% 29.84 in 10.0 mi WSW 5.8 mph - N/A   Mostly Cloudy
12:35 AM 60.8 °F 53.6 °F 77% 29.84 in 10.0 mi West 6.9 mph - N/A   Overcast
12:55 AM 60.8 °F 53.6 °F 77% 29.84 in 10.0 mi West 8.1 mph - N/A   Overcast
1:15 AM 59.0 °F 53.6 °F 82% 29.84 in 10.0 mi West 6.9 mph - N/A   Overcast
1:35 AM 59.0 °F 53.6 °F 82% 29.84 in 10.0 mi West 6.9 mph - N/A   Mostly Cloudy
1:55 AM 59.0 °F 53.6 °F 82% 29.84 in 10.0 mi WSW 6.9 mph - N/A   Mostly Cloudy
2:15 AM 59.0 °F 53.6 °F 82% 29.84 in 10.0 mi West 6.9 mph - N/A   Mostly Cloudy
2:35 AM 57.2 °F 53.6 °F 88% 29.84 in 10.0 mi West 6.9 mph - N/A   Scattered Clouds
2:55 AM 57.2 °F 53.6 °F 88% 29.84 in 10.0 mi West 9.2 mph - N/A   Scattered Clouds
3:15 AM 57.2 °F 51.8 °F 82% 29.85 in 10.0 mi West 6.9 mph - N/A   Scattered Clouds
3:35 AM 57.2 °F 53.6 °F 88% 29.85 in 10.0 mi West 6.9 mph - N/A   Overcast
3:55 AM 57.2 °F 51.8 °F 82% 29.85 in 10.0 mi West 8.1 mph - N/A   Overcast
4:15 AM 57.2 °F 51.8 °F 82% 29.86 in 10.0 mi West 8.1 mph - N/A   Scattered Clouds
4:35 AM 57.2 °F 51.8 °F 82% 29.86 in 10.0 mi West 11.5 mph 17.3 mph N/A   Clear
4:55 AM 57.2 °F 50.0 °F 77% 29.86 in 10.0 mi West 11.5 mph 19.6 mph N/A   Scattered Clouds
5:15 AM 57.2 °F 50.0 °F 77% 29.87 in 10.0 mi West 12.7 mph - N/A   Scattered Clouds
5:35 AM 55.4 °F 50.0 °F 82% 29.88 in 10.0 mi WNW 9.2 mph - N/A   Clear
5:55 AM 55.4 °F 50.0 °F 82% 29.89 in 10.0 mi West 6.9 mph - N/A   Clear
6:15 AM 55.4 °F 51.8 °F 88% 29.90 in 10.0 mi West 6.9 mph - N/A   Scattered Clouds
6:35 AM 55.4 °F 51.8 °F 88% 29.90 in 10.0 mi West 8.1 mph - N/A   Scattered Clouds
6:55 AM 57.2 °F 51.8 °F 82% 29.90 in 10.0 mi West 6.9 mph - N/A   Scattered Clouds
7:15 AM 57.2 °F 51.8 °F 82% 29.91 in 10.0 mi West 6.9 mph - N/A   Mostly Cloudy
7:35 AM 57.2 °F 51.8 °F 82% 29.91 in 10.0 mi West 9.2 mph - N/A   Overcast
7:55 AM 57.2 °F 51.8 °F 82% 29.92 in 10.0 mi West 12.7 mph 18.4 mph N/A   Overcast
8:15 AM 57.2 °F 51.8 °F 82% 29.92 in 10.0 mi West 9.2 mph - N/A   Overcast
8:35 AM 57.2 °F 51.8 °F 82% 29.93 in 10.0 mi West 12.7 mph 17.3 mph N/A   Overcast
8:55 AM 57.2 °F 51.8 °F 82% 29.94 in 10.0 mi West 11.5 mph 19.6 mph N/A   Overcast
9:15 AM 57.2 °F 51.8 °F 82% 29.94 in 10.0 mi West 10.4 mph 17.3 mph N/A   Overcast
9:35 AM 57.2 °F 51.8 °F 82% 29.95 in 10.0 mi West 13.8 mph - N/A   Overcast
9:55 AM 59.0 °F 53.6 °F 82% 29.95 in 10.0 mi West 12.7 mph - N/A   Overcast
10:15 AM 59.0 °F 53.6 °F 82% 29.96 in 10.0 mi WNW 12.7 mph 19.6 mph N/A   Overcast
10:35 AM 59.0 °F 53.6 °F 82% 29.97 in 10.0 mi West 12.7 mph 17.3 mph N/A   Overcast
10:55 AM 57.2 °F 53.6 °F 88% 29.97 in 3.0 mi WNW 13.8 mph 21.9 mph N/A Rain Light Rain
11:15 AM 57.2 °F 55.4 °F 94% 29.98 in 7.0 mi WNW 13.8 mph 18.4 mph N/A   Overcast
11:35 AM 60.8 °F 57.2 °F 88% 29.97 in 10.0 mi WNW 12.7 mph - N/A   Overcast
11:55 AM 60.8 °F 55.4 °F 82% 29.98 in 10.0 mi WNW 9.2 mph - N/A   Overcast
12:15 PM 60.8 °F 55.4 °F 82% 29.99 in 10.0 mi WNW 8.1 mph - N/A   Overcast
12:35 PM 60.8 °F 55.4 °F 82% 30.00 in 10.0 mi NW 6.9 mph - N/A   Overcast
12:55 PM 60.8 °F 57.2 °F 88% 30.01 in 7.0 mi NW 10.4 mph - N/A   Light Drizzle
1:15 PM 60.8 °F 57.2 °F 88% 30.02 in 10.0 mi North 20.7 mph - N/A   Overcast
1:35 PM 57.2 °F 55.4 °F 94% 30.03 in 4.0 mi North 18.4 mph 24.2 mph N/A Rain Light Rain
1:55 PM 57.2 °F 53.6 °F 88% 30.05 in 5.0 mi North 19.6 mph 25.3 mph N/A   Overcast
2:15 PM 57.2 °F 53.6 °F 88% 30.06 in 10.0 mi North 17.3 mph - N/A   Overcast
2:35 PM 57.2 °F 51.8 °F 82% 30.07 in 10.0 mi North 20.7 mph - N/A   Overcast
2:55 PM 59.0 °F 51.8 °F 77% 30.07 in 10.0 mi North 19.6 mph 24.2 mph N/A   Mostly Cloudy
3:15 PM 59.0 °F 51.8 °F 77% 30.08 in 10.0 mi North 18.4 mph - N/A   Overcast
3:35 PM 59.0 °F 51.8 °F 77% 30.09 in 10.0 mi North 11.5 mph - N/A   Overcast
3:55 PM 59.0 °F 51.8 °F 77% 30.09 in 10.0 mi North 16.1 mph - N/A   Overcast
4:15 PM 59.0 °F 51.8 °F 77% 30.10 in 10.0 mi North 16.1 mph - N/A   Overcast
4:35 PM 57.2 °F 51.8 °F 82% 30.11 in 10.0 mi North 11.5 mph - N/A   Overcast
4:55 PM 59.0 °F 51.8 °F 77% 30.12 in 10.0 mi North 12.7 mph - N/A   Overcast
5:15 PM 59.0 °F 51.8 °F 77% 30.13 in 10.0 mi North 10.4 mph - N/A   Overcast
5:35 PM 59.0 °F 51.8 °F 77% 30.13 in 10.0 mi North 15.0 mph 18.4 mph N/A   Overcast
5:55 PM 59.0 °F 51.8 °F 77% 30.13 in 10.0 mi North 13.8 mph - N/A   Overcast
6:15 PM 59.0 °F 50.0 °F 72% 30.14 in 10.0 mi North 18.4 mph - N/A   Overcast
6:35 PM 59.0 °F 50.0 °F 72% 30.15 in 10.0 mi North 13.8 mph - N/A   Overcast
6:55 PM 59.0 °F 50.0 °F 72% 30.15 in 10.0 mi NNE 13.8 mph 20.7 mph N/A   Overcast
7:15 PM 57.2 °F 48.2 °F 72% 30.16 in 10.0 mi North 12.7 mph - N/A   Mostly Cloudy
7:35 PM 59.0 °F 48.2 °F 67% 30.17 in 10.0 mi North 17.3 mph - N/A   Mostly Cloudy
7:55 PM 57.2 °F 48.2 °F 72% 30.18 in 10.0 mi NNE 15.0 mph 18.4 mph N/A   Mostly Cloudy
8:15 PM 55.4 °F 48.2 °F 77% 30.17 in 10.0 mi NNE 11.5 mph - N/A   Scattered Clouds
8:35 PM 55.4 °F 48.2 °F 77% 30.18 in 10.0 mi NNE 12.7 mph - N/A   Clear
8:55 PM 55.4 °F 48.2 °F 77% 30.19 in 10.0 mi NNE 10.4 mph - N/A   Clear
9:15 PM 53.6 °F 46.4 °F 77% 30.20 in 10.0 mi NNE 11.5 mph - N/A   Clear
9:35 PM 53.6 °F 46.4 °F 77% 30.21 in 10.0 mi NNE 11.5 mph - N/A   Clear
9:55 PM 53.6 °F 46.4 °F 77% 30.21 in 10.0 mi NNE 9.2 mph - N/A   Clear
10:15 PM 53.6 °F 46.4 °F 77% 30.22 in 10.0 mi NE 10.4 mph - N/A   Clear
10:35 PM 51.8 °F 46.4 °F 82% 30.22 in 10.0 mi NE 8.1 mph - N/A   Clear
10:55 PM 51.8 °F 46.4 °F 82% 30.22 in 10.0 mi NE 4.6 mph - N/A   Clear
11:15 PM 51.8 °F 46.4 °F 82% 30.23 in 10.0 mi ENE 6.9 mph - N/A   Clear
11:35 PM 50.0 °F 46.4 °F 87% 30.24 in 10.0 mi East 5.8 mph - N/A   Clear
11:55 PM 48.2 °F 46.4 °F 93% 30.25 in 10.0 mi East 4.6 mph - N/A   Clear